Find Starlink 11626

NORAD ID: 63556 Int'l Des: 2025-075 Owner: SPXS Country: US Constellation: starlink operational
LEOCIRCULAR

Live-Position

3D-Globus wird geladen...

Über Starlink 11626

Beschreibung wird geladen...

Nächste Überflüge

Passes for default location (London). Set your location on the main map for personalized predictions.

Höhenverlauf

Loading altitude history...

Zweizeiliger Elementsatz

1 63556U 25075J 26123.17648509 .00201764 00000-0 15313-2 0 9993
2 63556 42.9992 185.7585 0000826 258.4530 101.6245 15.70944366 61814
Epoch: 3. Mai 2026 • Age: 19 hours

Aktueller Status

Höhe 355.2 km
Geschwindigkeit 7.70 km/s
Subsatellitenpunkt -1.73°S, 151.18°E
Startdatum 13. Apr. 2025
Alter 1 years
Typ internet

Technische Details

Klassifizierung Payload
Masse 960.00 kg
Trockenmasse 910.00 kg
Gesamtmasse 960.00 kg
Länge 0.30 m
Durchmesser 4.10 m
Spannweite 29.00 m
Form Box + pan
Hersteller SPXS
Bus-Typ Starlink V2MD
Phasenstatus In Orbit
Besitzer/Staat SPXS/US

Most Searched